Location: Newark
(49.5647°N, 8.2922°E)
Time: 18:21:42
(UTC+00:00)

Tiros 1 despin weight - Visible Passes

Search period start: 21 February 2020 00:00
Search period end: 02 March 2020 00:00
Orbit: 594 x 642 km, 48.2° (Epoch: 21 February)

Date Brightness Start Highest point End Pass type
(mag) Time Alt. Az. Time Alt. Az. Time Alt. Az.
21 Feb ? 03:40:13 45° ESE 03:40:13 45° ESE 03:43:21 10° E visible
21 Feb ? 05:17:16 17° W 05:20:15 42° SSW 05:24:25 10° SE visible
22 Feb ? 03:56:03 57° SSE 03:56:03 57° SSE 03:59:49 10° ESE visible
22 Feb ? 05:33:06 12° W 05:36:34 28° SSW 05:40:22 10° SSE visible
23 Feb ? 02:34:52 10° E 02:34:52 10° E 02:34:55 10° E visible
23 Feb ? 04:11:56 51° SSW 04:11:56 51° SSW 04:16:10 10° SE visible
23 Feb ? 05:49:47 10° W 05:52:47 18° SW 05:55:47 10° S visible
24 Feb ? 02:50:49 14° ESE 02:50:49 14° ESE 02:51:26 10° ESE visible
24 Feb ? 04:27:53 35° SW 04:28:17 36° SSW 04:32:18 10° SE visible
25 Feb ? 03:06:51 17° ESE 03:06:51 17° ESE 03:07:52 10° ESE visible
25 Feb ? 04:43:55 23° SW 04:44:33 24° SW 04:48:04 10° SSE visible
26 Feb ? 03:22:59 17° SE 03:22:59 17° SE 03:24:08 10° SE visible
26 Feb ? 05:00:03 14° SW 05:00:43 14° SW 05:03:07 10° S visible
27 Feb ? 03:39:14 15° SSE 03:39:14 15° SSE 03:40:08 10° SSE visible
28 Feb ? 03:55:36 10° S 03:55:36 10° S 03:55:40 10° S visible
